User: anonymous   Login
Location: Unspecified
(0.0000°N, 0.0000°E)
Time: 12:39:06
(UTC+00:00)
Language:

BIRD - Orbit

View from above orbital plane
View from above orbital plane
View from above satellite
View from above satellite

Ground track
Ground track

The orbit data is extracted from the following two-line orbital elements,

1 26959U 01049C   17351.97955163  .00001883  00000-0  57626-4 0  9997
2 26959  97.8118 309.4601 0010365  90.9742 269.2688 15.35215733894519
Epoch (UTC): 17 December 2017 23:30:33
Eccentricity: 0.0010365
inclination: 97.8118°
perigee height: 453 km
apogee height: 467 km
right ascension of ascending node: 309.4601°
argument of perigee: 90.9742°
revolutions per day: 15.35215733
mean anomaly at epoch: 269.2688°
orbit number at epoch: 89451

The dashed part of the orbit path shows where the satellite is in the earth's shadow,  

DLR